Weather History for Pendleton, OR

Change the Weather History Date:

Friday, February 15, 2013

  Actual Average Record
Temperature  
Mean Temperature 44 °F 38 °F  
Max Temperature 57 °F 47 °F 66 °F (1982)
Min Temperature 30 °F 30 °F -5 °F (1923)
Degree Days  
Heating Degree Days 21 27  
Month to date heating degree days 373 412  
Since 1 July heating degree days 3395 3570  
Cooling Degree Days 0 0  
Month to date cooling degree days 0 0  
Year to date cooling degree days 0 0  
Moisture  
Dew Point 35 °F    
Average Humidity 77    
Maximum Humidity 100    
Minimum Humidity 54    
Precipitation  
Precipitation 0.00 in 0.04 in 0.84 in (2011)
Month to date precipitation T 0.58  
Year to date precipitation 0.98 2.01  
Snow  
Snow 0.00 in 0.10 in 3.00 in (1932)
Month to date snowfall 0.0 1.9  
Year to date snowfall 0.1 5.6  
Since 1 July snowfall 1.9 13.1  
Snow Depth 0.00 in    
Sea Level Pressure  
Sea Level Pressure 30.39 in    
Wind  
Wind Speed 6 mph (East)    
Max Wind Speed 14 mph    
Max Gust Speed 18 mph    
Visibility 10 miles    
Events      
T = Trace of Precipitation, MM = Missing Value Source: NWS Daily Summary

Daily Weather History Graph

Daily Weather History Graph

Search for Another Location

Airport:

Trip Planner

Search our weather history database for the weather conditions in past years. The results will help you decide how hot, cold, wet, or windy it might be!

Date:

Astronomy

Feb. 15, 2013 Rise Set
Actual Time 6:56 AM PST 5:22 PM PST
Civil Twilight 6:26 AM PST 5:53 PM PST
Nautical Twilight 5:51 AM PST 6:28 PM PST
Astronomical Twilight 5:17 AM PST 7:02 PM PST
Moon 9:15 AM PST (2/15) 11:50 PM PST (2/15)
Length of Visible Light 11h 26m
Length of Day
10h 25m
Waxing Crescent, 31% of the Moon is Illuminated
Feb 15
Waxing Crescent
Feb 17
First Quarter
Feb 25
Full
Mar 4
Last Quarter
Mar 11
New

Hourly Weather History & Observations

Time (PST) Temp. Windchill Dew Point Humidity Pressure Visibility Wind Dir Wind Speed Gust Speed Precip Events Conditions
12:53 AM 33.1 °F 25.5 °F 30.9 °F 92% 30.51 in 10.0 mi SE 9.2 mph - N/A   Clear
1:53 AM 35.1 °F 29.3 °F 32.0 °F 89% 30.50 in 10.0 mi SSE 6.9 mph - N/A   Clear
2:53 AM 35.1 °F 30.1 °F 32.0 °F 89% 30.49 in 10.0 mi ESE 5.8 mph - N/A   Clear
3:53 AM 33.1 °F 26.9 °F 30.9 °F 92% 30.48 in 10.0 mi ESE 6.9 mph - N/A   Clear
4:53 AM 30.9 °F 26.2 °F 30.0 °F 96% 30.48 in 10.0 mi ESE 4.6 mph - N/A   Clear
5:53 AM 33.1 °F 27.7 °F 30.9 °F 92% 30.48 in 10.0 mi ESE 5.8 mph - N/A   Clear
6:53 AM 35.1 °F - 32.0 °F 89% 30.48 in 10.0 mi Calm Calm - N/A   Clear
7:53 AM 34.0 °F 31.0 °F 32.0 °F 92% 30.50 in 10.0 mi South 3.5 mph - N/A   Clear
8:53 AM 39.9 °F 37.8 °F 34.0 °F 79% 30.49 in 10.0 mi East 3.5 mph - N/A   Clear
9:53 AM 45.0 °F - 35.1 °F 68% 30.48 in 10.0 mi Calm Calm - N/A   Clear
10:53 AM 48.9 °F - 37.0 °F 64% 30.47 in 10.0 mi Variable 3.5 mph - N/A   Clear
11:53 AM 53.1 °F - 37.9 °F 57% 30.43 in 10.0 mi NW 6.9 mph - N/A   Clear
12:53 PM 55.0 °F - 39.9 °F 57% 30.40 in 10.0 mi NW 9.2 mph - N/A   Clear
1:53 PM 55.9 °F - 39.9 °F 55% 30.37 in 10.0 mi WNW 10.4 mph - N/A   Clear
2:53 PM 55.9 °F - 39.0 °F 53% 30.34 in 10.0 mi North 5.8 mph - N/A   Clear
3:53 PM 54.0 °F - 37.9 °F 55% 30.32 in 10.0 mi ENE 10.4 mph - N/A   Clear
4:53 PM 50.0 °F - 37.9 °F 63% 30.31 in 10.0 mi NE 6.9 mph - N/A   Clear
5:53 PM 43.0 °F 37.7 °F 37.0 °F 80% 30.30 in 10.0 mi NE 9.2 mph - N/A   Clear
6:53 PM 39.9 °F 33.4 °F 36.0 °F 86% 30.29 in 10.0 mi NE 10.4 mph - N/A   Clear
7:53 PM 39.9 °F 36.7 °F 36.0 °F 86% 30.27 in 10.0 mi South 4.6 mph - N/A   Clear
8:53 PM 41.0 °F 39.0 °F 36.0 °F 82% 30.25 in 10.0 mi SE 3.5 mph - N/A   Clear
9:53 PM 39.0 °F - 36.0 °F 89% 30.24 in 10.0 mi Calm Calm - N/A   Clear
10:53 PM 32.0 °F 26.4 °F 30.9 °F 96% 30.24 in 10.0 mi ENE 5.8 mph - N/A   Clear
11:53 PM 30.9 °F 27.5 °F 30.0 °F 96% 30.23 in 8.0 mi ENE 3.5 mph - N/A   Clear